KUIPER-00270

导读

KUIPER-00270是亚马逊“柯伊伯计划”卫星互联网项目的量产卫星,于2026年2月12日由法国阿丽亚娜空间公司发射。该计划计划在近地轨道部署3236颗卫星,旨在为全球提供高速、经济的卫星互联网接入服务,KUIPER-00270是该星座组网进程中的一颗关键卫星,将助力全球网络覆盖推进。

基本信息
目录编号:
67791
目录名称:
KUIPER-00270
国际标识:
2026-030AD
轨道中心:
EARTH
卫星名称:
KUIPER-00270
卫星全名:
KUIPER-00270
卫星状态:
在轨 (已飞行121 天)
发射日期:
2026-02-12 UTC
国别 :
美国 (US)
星等 :
--
轨道信息
数据来源 国际轨道数据 AOE轨道数据
星历时间 2026-06-12T14:00:03+0800
18小时前
查看轨道信息
2026-06-12T03:00:00+0800
1天前
查看轨道信息
半长轴 6899.21km 6896.936km
偏心率 0.0011386 0.0013159
轨道倾角 51.891° 51.892°
近地点辐角 25.748° 28.503°
升交点赤经 124.513° 126.645°
平近点角 61.260° 76.156°
近地点 513.217km 509.723km
远地点 528.929km 527.875km
周期 95.051分钟 95.004分钟
每日圈数 15.149691 15.157185
详细信息
使用方式:
暂无
2D轨道图
3D轨道图
轨道高度分析图
轨道倾角分析图
轨道综合分析图
查看轨道综合分析图